Location: Staunton
(38.1490°N, 79.0720°W)
Time: 09:56:04
(UTC-04:00)

ISS - Pass Details

Date: 23 May 2018
Orbit: 402 x 407 km, 51.6° (Epoch: 23 May)

Event Time Altitude Azimuth Distance (km) Brightness Sun altitude
Rises 02:25:00 0° 319° (NW) 2,318 0.4 -28.9°
Reaches altitude 10° 02:27:46 10° 345° (NNW) 1,456 -0.4 -28.7°
Maximum altitude 02:29:42 15° 22° (NNE) 1,206 -0.6 -28.6°
Drops below altitude 10° 02:31:38 10° 58° (ENE) 1,453 -0.4 -28.4°
Sets 02:34:24 0° 84° (E) 2,310 0.4 -28.2°
